Location: Hilton Head Island
(32.2163°N, 80.7526°W)
Time: 01:59:28
(UTC-04:00)

Vanguard 1 - Pass Details

Date: 25 February 2026
Orbit: 653 x 3818 km, 34.2° (Epoch: 9 March)

Event Time Altitude Azimuth Distance (km) Brightness Sun altitude
Rises 19:13:20 0° 287° (WNW) 5,527 15.4 -12.5°
Reaches altitude 10° 19:16:23 10° 284° (WNW) 4,862 14.9 -13.2°
Maximum altitude 19:31:25 62° 208° (SSW) 3,522 12.9 -16.4°
Drops below altitude 10° 19:54:02 10° 134° (SE) 6,911 13.9 -21.1°
Enters shadow 19:57:05 - 132° (SE) 7,453 14.1 -21.8°
Sets 19:59:29 0° 131° (SE) 7,873 - -22.3°
